KE8BSM Weather Reports


Display with metric or nautical units.
time (UTC)temp
F
wind
direction
speed
MPH
gust
MPH
rain 1hr
in
rain 24hr
in
rain mn
in
humidity
%
barometer
mb
20260905161105 69 0.0 0.0 0.00 0.01 0.00 90 1012.9
20260905160525 70 0.0 0.0 0.00 0.02 0.00 90 1012.9
20260905160025 70 134 0.0 0.0 0.00 0.03 0.00 89 1012.9
20260905155545 70 0.0 0.0 0.00 0.04 0.00 88 1012.9
20260905155025 70 115 0.0 1.0 0.00 0.05 0.00 88 1012.7
20260905154525 70 134 0.0 1.0 0.00 0.06 0.00 87 1012.7
20260905154025 70 0.0 0.0 0.00 0.06 0.00 86 1012.6
20260905153525 70 0.0 0.0 0.00 0.07 0.00 87 1012.6
20260905153026 70 0.0 0.0 0.00 0.07 0.00 86 1012.6
20260905152545 70 0.0 0.0 0.00 0.07 0.00 86 1012.5
20260905152025 70 137 1.0 1.0 0.00 0.07 0.00 86 1012.5
20260905151545 70 127 0.0 1.0 0.00 0.08 0.00 86 1012.6
20260905151046 70 0.0 0.0 0.00 0.09 0.00 86 1012.5
20260905150526 70 0.0 0.0 0.00 0.09 0.00 86 1012.5
20260905150026 70 130 1.0 1.0 0.00 0.09 0.00 86 1012.6
20260905145706 70 133 2.0 3.0 0.00 0.09 0.00 86 1012.6
20260905145026 70 114 0.0 0.0 0.00 0.10 0.00 86 1012.4
20260905144526 70 133 1.0 1.0 0.00 0.10 0.00 86 1012.3
20260905144026 70 128 1.0 2.0 0.00 0.10 0.00 87 1012.3
20260905143546 70 0.0 0.0 0.00 0.10 0.00 87 1012.2
20260905143047 70 0.0 0.0 0.00 0.10 0.00 87 1012.2
20260905142526 70 146 1.0 2.0 0.00 0.10 0.00 88 1012.3
20260905142026 70 137 0.0 0.0 0.00 0.10 0.00 87 1012.3
20260905141527 70 0.0 0.0 0.00 0.11 0.00 88 1012.2
20260905141026 69 0.0 0.0 0.00 0.11 0.00 89 1012.2
20260905140527 69 0.0 0.0 0.00 0.12 0.00 88 1012.1
20260905140027 69 99 0.0 1.0 0.00 0.12 0.00 89 1012.0
20260905135527 69 126 1.0 2.0 0.00 0.12 0.00 89 1011.9
20260905135027 69 133 0.0 0.0 0.00 0.12 0.00 89 1011.8
20260905134527 69 110 1.0 1.0 0.00 0.12 0.00 89 1011.9
20260905134027 69 141 1.0 2.0 0.00 0.12 0.00 89 1011.9
20260905133548 69 130 2.0 3.0 0.00 0.12 0.00 89 1012.0
20260905133027 69 126 1.0 2.0 0.00 0.13 0.00 89 1012.0
20260905132528 69 134 0.0 2.0 0.00 0.13 0.00 89 1012.0
20260905132028 69 132 0.0 1.0 0.00 0.13 0.00 90 1011.9
20260905131528 69 123 1.0 1.0 0.00 0.13 0.00 91 1011.9
20260905131027 70 0.0 0.0 0.00 0.13 0.00 90 1011.9
20260905130528 70 124 1.0 1.0 0.00 0.13 0.00 91 1011.8
20260905130048 70 119 1.0 2.0 0.00 0.16 0.00 92 1011.8
20260905125528 70 132 0.0 1.0 0.00 0.17 0.00 92 1011.8
20260905125028 70 137 0.0 0.0 0.00 0.19 0.00 94 1011.8
20260905124528 70 134 0.0 1.0 0.00 0.34 0.00 94 1011.7
20260905124028 70 0.0 0.0 0.00 0.48 0.00 94 1011.6
20260905123528 70 133 1.0 2.0 0.00 0.50 0.00 95 1011.4
20260905123028 70 0.0 0.0 0.00 0.52 0.00 95 1011.4
20260905122528 70 133 0.0 1.0 0.00 0.56 0.00 95 1011.5
20260905122028 70 0.0 0.0 0.00 0.60 0.00 95 1011.4
20260905121528 70 0.0 0.0 0.00 0.60 0.00 95 1011.3
20260905121028 70 0.0 0.0 0.00 0.61 0.00 95 1011.3
20260905120529 70 126 1.0 1.0 0.00 0.62 0.00 95 1011.3
20260905120029 70 157 1.0 2.0 0.00 0.65 0.00 96 1011.3
20260905115529 70 0.0 0.0 0.00 0.65 0.00 96 1011.4
20260905115029 70 140 0.0 1.0 0.00 0.67 0.00 96 1011.3
20260905114529 70 0.0 0.0 0.00 0.68 0.00 96 1011.3
20260905114029 70 0.0 0.0 0.00 0.70 0.00 97 1011.1
20260905113529 70 128 0.0 1.0 0.00 0.71 0.00 97 1011.1
20260905113029 70 146 0.0 0.0 0.00 0.73 0.00 97 1011.0
20260905112529 70 123 0.0 0.0 0.00 0.75 0.00 97 1011.0
20260905112029 70 0.0 0.0 0.00 0.78 0.00 97 1011.0
20260905111529 70 0.0 0.0 0.00 0.81 0.00 97 1011.0
20260905111029 70 0.0 0.0 0.00 0.90 0.00 97 1010.9
20260905110529 70 125 1.0 2.0 0.00 1.02 0.00 97 1010.9
20260905110029 70 111 0.0 0.0 0.00 1.23 0.00 98 1010.8
20260905105530 70 0.0 0.0 0.00 1.33 0.00 98 1010.8
20260905105030 70 0.0 0.0 0.00 1.36 0.00 98 1010.8
20260905104530 70 0.0 0.0 0.00 1.36 0.00 98 1010.7
20260905104030 70 197 0.0 0.0 0.00 1.36 0.00 98 1010.7
20260905103530 70 0.0 0.0 0.00 1.37 0.00 98 1010.8
20260905103015 70 114 0.0 0.0 0.00 1.38 0.00 97 1010.8
20260905102515 70 126 1.0 1.0 0.00 1.40 0.00 97 1010.9
20260905102015 70 0.0 0.0 0.00 1.40 0.00 97 1010.9
20260905101515 70 0.0 0.0 0.00 1.41 0.00 97 1010.9
20260905101016 70 0.0 0.0 0.00 1.41 0.00 97 1011.0
20260905100516 70 0.0 0.0 0.00 1.41 0.00 97 1010.9
20260905100016 70 0.0 0.0 0.00 1.41 0.00 97 1010.8
20260905095536 70 129 1.0 1.0 0.00 1.41 0.00 97 1010.8
20260905095016 70 0.0 0.0 0.00 1.41 0.00 97 1010.8
20260905094516 70 0.0 0.0 0.00 1.41 0.00 97 1010.7
20260905094016 70 136 0.0 1.0 0.00 1.41 0.00 97 1010.7
20260905093536 70 0.0 0.0 0.00 1.41 0.00 97 1010.7
20260905093016 70 0.0 0.0 0.00 1.41 0.00 97 1010.6
20260905092516 70 0.0 0.0 0.00 1.41 0.00 97 1010.5
20260905092016 70 0.0 0.0 0.00 1.41 0.00 97 1010.4
20260905091516 70 0.0 0.0 0.00 1.41 0.00 97 1010.5
20260905091016 70 148 1.0 2.0 0.00 1.41 0.00 97 1010.5
20260905090537 70 0.0 0.0 0.00 1.41 0.00 97 1010.4
20260905090016 70 122 0.0 0.0 0.00 1.41 0.00 97 1010.4
20260905085516 70 138 0.0 0.0 0.00 1.41 0.00 98 1010.4
20260905085036 70 132 0.0 1.0 0.00 1.41 0.00 98 1010.4
20260905084516 70 0.0 0.0 0.00 1.41 0.00 98 1010.4
20260905084016 70 124 0.0 0.0 0.00 1.41 0.00 98 1010.3
20260905083516 70 135 0.0 0.0 0.00 1.41 0.00 99 1010.3
20260905083016 70 0.0 0.0 0.00 1.41 0.00 99 1010.3
20260905082556 70 0.0 0.0 0.00 1.41 0.00 99 1010.2
20260905082016 70 0.0 0.0 0.00 1.41 0.00 99 1010.1
20260905081516 70 0.0 0.0 0.00 1.41 0.00 99 1010.2
20260905081016 70 0.0 0.0 0.00 1.41 0.00 99 1010.2
20260905080516 70 0.0 0.0 0.00 1.41 0.00 99 1010.2
20260905080017 0 0.0 0.0 0.00 1.41 0.00
20260905075417 70 0.0 0.0 0.00 1.41 0.00 99 1010.1
20260905074916 70 0.0 0.0 0.00 1.41 0.00 99 1010.2
20260905074417 70 0.0 0.0 0.00 1.41 0.00 99 1010.3
20260905073917 70 0.0 0.0 0.00 1.41 0.00 99 1010.3
20260905073417 70 0.0 0.0 0.00 1.41 0.00 99 1010.2
20260905072937 70 0.0 0.0 0.00 1.41 0.00 98 1010.2
20260905072417 70 0.0 0.0 0.00 1.41 0.00 98 1010.2
20260905071917 70 0.0 0.0 0.00 1.41 0.00 98 1010.1
20260905071417 70 0.0 0.0 0.00 1.41 0.00 98 1010.2
20260905070917 70 0.0 0.0 0.00 1.41 0.00 98 1010.2
20260905070437 70 0.0 0.0 0.00 1.41 0.00 98 1010.3
20260905065917 70 207 0.0 1.0 0.00 1.41 0.00 98 1010.4
20260905065418 70 0.0 0.0 0.00 1.41 0.00 98 1010.5
20260905064917 70 0.0 0.0 0.00 1.41 0.00 97 1010.6
20260905064418 70 0.0 0.0 0.00 1.41 0.00 97 1010.7
20260905063918 70 0.0 0.0 0.00 1.41 0.00 98 1010.7
20260905063418 70 0.0 0.0 0.00 1.41 0.00 97 1010.5
20260905062916 70 0.0 0.0 0.00 1.41 0.00 97 1010.4
20260905062416 70 0.0 0.0 0.00 1.41 0.00 97 1010.3
20260905061916 70 0.0 0.0 0.00 1.41 0.00 97 1010.4
20260905061456 71 0.0 0.0 0.00 1.41 0.00 97 1010.4
20260905060937 71 325 0.0 3.0 0.00 1.41 0.00 97 1010.3
20260905060417 71 0.0 0.0 0.00 1.41 0.00 97 1010.3
20260905055917 71 0.0 0.0 0.00 1.41 0.00 97 1010.4
20260905055417 71 0.0 0.0 0.00 1.41 0.00 97 1010.3
20260905054917 71 0.0 0.0 0.00 1.41 0.00 97 1010.4
20260905054417 71 0.0 0.0 0.00 1.41 0.00 97 1010.6
20260905053917 71 128 0.0 0.0 0.00 1.41 0.00 97 1010.7
20260905053417 71 87 0.0 1.0 0.00 1.41 0.00 97 1010.6
20260905052937 71 0.0 0.0 0.00 1.41 0.00 97 1010.6
20260905052417 71 0.0 0.0 0.00 1.41 0.00 97 1010.7
20260905051917 71 0.0 0.0 0.00 1.41 0.00 97 1010.7
20260905051418 71 0.0 0.0 0.00 1.41 0.00 97 1010.8
20260905050918 71 0.0 0.0 0.00 1.41 0.00 97 1010.8
20260905050418 71 48 0.0 0.0 0.00 1.41 0.00 97 1010.9
20260905045938 71 0.0 0.0 0.00 1.41 0.00 97 1010.9
20260905045418 71 0.0 0.0 0.00 1.41 0.00 97 1010.9
20260905044918 71 0.0 0.0 0.00 1.41 0.00 97 1010.8
20260905044418 71 0.0 0.0 0.00 1.41 0.00 98 1010.8
20260905043918 71 0.0 0.0 0.00 1.41 0.00 98 1010.7
20260905043418 71 0.0 0.0 0.00 1.41 0.00 97 1010.5
20260905042918 71 0.0 0.0 0.00 1.41 0.00 97 1010.6
20260905042418 71 0.0 0.0 0.00 1.41 0.00 97 1010.6
20260905041958 71 0.0 0.0 0.00 1.41 0.00 97 1010.6
20260905041418 71 0.0 0.0 0.00 1.41 0.00 97 1010.6
20260905040919 71 0.0 0.0 0.00 1.41 0.00 97 1010.6
20260905040416 71 0.0 0.0 0.00 1.41 0.00 97 1010.6
20260905035916 71 0.0 0.0 0.00 1.41 1.41 96 1010.7
20260905035436 71 0.0 0.0 0.00 1.41 1.41 96 1010.7
20260905034916 71 0.0 0.0 0.00 1.41 1.41 96 1010.8
20260905034416 71 0.0 0.0 0.00 1.41 1.41 96 1010.9
20260905033916 71 0.0 0.0 0.00 1.41 1.41 97 1011.0
20260905033436 71 0.0 0.0 0.00 1.41 1.41 96 1011.1
20260905032916 71 0.0 0.0 0.00 1.41 1.41 96 1011.1
20260905032416 72 0.0 0.0 0.00 1.41 1.41 96 1011.1
20260905031916 72 0.0 0.0 0.00 1.41 1.41 96 1011.3
20260905031416 72 0.0 0.0 0.00 1.41 1.41 95 1011.5
20260905030916 72 0.0 0.0 0.00 1.41 1.41 94 1011.5
20260905030437 72 204 0.0 1.0 0.00 1.41 1.41 94 1011.6
20260905025916 72 0.0 0.0 0.00 1.41 1.41 94 1011.6
20260905025417 72 0.0 0.0 0.00 1.41 1.41 93 1011.7
20260905024917 72 0.0 0.0 0.00 1.41 1.41 93 1011.6
20260905024417 72 0.0 0.0 0.00 1.41 1.41 93 1011.6
20260905023917 73 0.0 0.0 0.00 1.41 1.41 93 1011.6
20260905023417 73 0.0 0.0 0.00 1.41 1.41 93 1011.6
20260905022917 73 0.0 0.0 0.00 1.41 1.41 92 1011.6
20260905022417 73 0.0 0.0 0.00 1.41 1.41 92 1011.5
20260905021917 73 0.0 0.0 0.00 1.41 1.41 92 1011.5
20260905021417 73 0.0 0.0 0.00 1.41 1.41 91 1011.5
20260905020917 73 0.0 0.0 0.00 1.41 1.41 91 1011.5
20260905020417 73 0.0 0.0 0.00 1.41 1.41 91 1011.4
20260905015918 73 0.0 0.0 0.00 1.41 1.41 91 1011.3
20260905015418 73 0.0 0.0 0.00 1.41 1.41 92 1011.5
20260905014918 73 91 0.0 0.0 0.00 1.41 1.41 91 1011.5
20260905014418 73 0.0 0.0 0.00 1.41 1.41 91 1011.4
20260905013918 73 0.0 0.0 0.00 1.41 1.41 91 1011.3
20260905013418 74 0.0 0.0 0.00 1.41 1.41 91 1011.3
20260905012918 74 0.0 0.0 0.00 1.41 1.41 90 1011.3
20260905012418 74 0.0 0.0 0.00 1.41 1.41 90 1011.4
20260905011915 74 131 0.0 0.0 0.00 1.41 1.41 90 1011.4
20260905011415 74 0.0 0.0 0.00 1.41 1.41 90 1011.4
20260905010936 74 0.0 0.0 0.00 1.41 1.41 89 1011.3
20260905010415 74 155 0.0 1.0 0.00 1.41 1.41 90 1011.2
20260905005915 74 0.0 0.0 0.00 1.41 1.41 90 1011.2
20260905005416 74 0.0 0.0 0.00 1.41 1.41 89 1011.1
20260905004936 75 0.0 0.0 0.00 1.41 1.41 88 1011.1
20260905004416 75 127 0.0 1.0 0.00 1.41 1.41 88 1011.1
20260905003917 75 103 0.0 1.0 0.00 1.41 1.41 88 1010.9
20260905003416 75 0.0 0.0 0.00 1.41 1.41 89 1010.9
20260905002916 75 0.0 0.0 0.00 1.41 1.41 88 1010.9
20260905002416 75 153 0.0 1.0 0.00 1.41 1.41 89 1010.8
20260905001936 75 133 0.0 1.0 0.00 1.41 1.41 89 1010.8
20260905001416 75 0.0 0.0 0.00 1.41 1.41 89 1010.8
20260905000916 75 113 0.0 1.0 0.00 1.41 1.41 89 1010.8
20260905000417 75 0.0 0.0 0.00 1.41 1.41 88 1010.8
20260904235916 75 0.0 0.0 0.00 1.41 1.41 89 1010.8
20260904235417 75 0.0 0.0 0.00 1.41 1.41 88 1010.7
20260904234917 76 67 0.0 1.0 0.00 1.41 1.41 88 1010.7
20260904234437 76 0.0 0.0 0.00 1.41 1.41 89 1010.7
20260904233917 76 0.0 0.0 0.00 1.41 1.41 88 1010.6
20260904233417 76 0.0 0.0 0.00 1.41 1.41 87 1010.6
20260904232917 76 0.0 0.0 0.00 1.41 1.41 88 1010.7
20260904232417 76 0.0 0.0 0.00 1.41 1.41 87 1010.7
20260904231917 76 0.0 0.0 0.00 1.41 1.41 87 1010.7
20260904231417 76 0.0 0.0 0.00 1.41 1.41 86 1010.7
20260904230917 77 0.0 0.0 0.00 1.41 1.41 86 1010.7
20260904230437 77 0.0 0.0 0.00 1.41 1.41 86 1010.8
20260904225917 77 0.0 0.0 0.00 1.41 1.41 85 1010.7
20260904225418 78 0.0 0.0 0.00 1.41 1.41 83 1010.8
20260904224917 78 0.0 0.0 0.00 1.41 1.41 83 1010.8
20260904224417 78 0.0 0.0 0.00 1.41 1.41 82 1010.8
20260904223918 79 0.0 0.0 0.00 1.41 1.41 81 1010.7
20260904223418 79 0.0 0.0 0.00 1.41 1.41 82 1010.7
20260904222918 79 116 0.0 0.0 0.00 1.41 1.41 82 1010.5
20260904222438 78 0.0 0.0 0.00 1.41 1.41 83 1010.5
20260904221918 78 79 0.0 0.0 0.00 1.41 1.41 83 1010.5
20260904221418 78 0.0 0.0 0.00 1.41 1.41 82 1010.5
20260904220915 79 147 0.0 1.0 0.00 1.41 1.41 81 1010.5
20260904220415 79 0.0 0.0 0.00 1.41 1.41 82 1010.5
20260904215915 78 0.0 0.0 0.00 1.41 1.41 81 1010.5
20260904215416 78 255 2.0 3.0 0.00 1.41 1.41 80 1010.4
20260904214916 78 256 2.0 3.0 0.00 1.41 1.41 80 1010.3
20260904214416 78 226 2.0 3.0 0.00 1.41 1.41 82 1010.2
20260904213915 78 46 0.0 2.0 0.00 1.41 1.41 82 1010.1
20260904213436 77 98 2.0 2.0 0.00 1.41 1.41 82 1010.1
20260904212927 77 164 1.0 1.0 0.00 1.41 1.41 83 1010.1
20260904212427 76 182 0.0 1.0 0.00 1.41 1.41 84 1010.3
20260904211927 76 66 0.0 1.0 0.00 1.41 1.41 84 1010.3
20260904211427 76 0.0 0.0 0.00 1.41 1.41 86 1010.4
20260904210927 76 259 0.0 1.0 0.00 1.41 1.41 84 1010.4
20260904210427 76 309 2.0 3.0 0.00 1.41 1.41 86 1010.5
20260904205927 75 0.0 0.0 0.00 1.41 1.41 86 1010.5
20260904205427 75 287 2.0 3.0 0.00 1.41 1.41 89 1010.5
20260904204927 75 319 1.0 2.0 0.00 1.41 1.41 89 1010.5
20260904204447 75 0.0 0.0 0.00 1.41 1.41 89 1010.6
20260904203927 75 0.0 0.0 0.00 1.41 1.41 89 1010.6
20260904203427 75 0.0 0.0 0.00 1.41 1.41 89 1010.7
20260904202928 75 129 0.0 0.0 0.00 1.41 1.41 89 1010.8
20260904202428 75 0.0 0.0 0.00 1.41 1.41 89 1010.8
20260904201927 75 0.0 0.0 0.00 1.41 1.41 89 1010.9
20260904201428 75 0.0 0.0 0.00 1.41 1.41 89 1010.9
20260904200928 75 272 0.0 0.0 0.00 1.41 1.41 88 1011.0
20260904200428 75 0.0 0.0 0.00 1.41 1.41 88 1010.8
20260904195928 75 223 0.0 0.0 0.00 1.41 1.41 88 1010.9
20260904195428 74 95 1.0 1.0 0.00 1.41 1.41 88 1010.9
20260904194928 74 0.0 0.0 0.00 1.41 1.41 90 1010.9
20260904194428 74 0.0 0.0 0.00 1.41 1.41 89 1011.0
20260904193928 74 196 0.0 0.0 0.00 1.41 1.41 90 1011.0
20260904193428 74 0.0 0.0 0.00 1.42 1.41 92 1011.0
20260904192928 74 0.0 0.0 0.00 1.42 1.41 92 1011.0
20260904192429 74 0.0 0.0 0.00 1.42 1.41 92 1011.1
20260904191929 74 0.0 0.0 0.00 1.42 1.41 92 1011.1
20260904191429 73 0.0 0.0 0.00 1.42 1.41 91 1011.2
20260904190929 73 0.0 0.0 0.00 1.42 1.41 90 1011.3
20260904190429 73 0.0 0.0 0.00 1.42 1.41 92 1011.4
20260904185915 73 0.0 0.0 0.00 1.42 1.41 92 1011.4
20260904185435 73 0.0 0.0 0.00 1.42 1.41 93 1011.5
20260904184915 73 0.0 0.0 0.00 1.42 1.41 93 1011.5
20260904184415 73 0.0 0.0 0.00 1.42 1.41 96 1011.4
20260904183936 73 117 1.0 1.0 0.00 1.42 1.41 96 1011.2
20260904183415 72 0.0 0.0 0.00 1.43 1.41 97 1011.5
20260904182916 72 197 0.0 0.0 0.00 1.43 1.41 97 1011.3
20260904182416 72 0.0 0.0 0.00 1.45 1.41 96 1011.4
20260904181916 72 0.0 0.0 0.00 1.46 1.41 97 1011.5
20260904181416 72 0.0 0.0 0.00 1.47 1.41 97 1011.5
20260904180916 72 0.0 0.0 0.00 1.48 1.41 97 1011.2
20260904180416 72 0.0 0.0 0.00 1.49 1.41 97 1011.2
20260904175916 72 0.0 0.0 0.00 1.49 1.41 97 1011.3
20260904175416 72 0.0 0.0 0.00 1.49 1.41 97 1011.4
20260904174916 72 0.0 0.0 0.00 1.49 1.41 98 1011.3
20260904174416 72 0.0 0.0 0.00 1.49 1.41 97 1011.5
20260904173937 71 0.0 0.0 0.00 1.49 1.41 98 1011.8
20260904173417 71 297 1.0 1.0 0.00 1.49 1.41 99 1011.7
20260904172917 71 0.0 0.0 0.00 1.49 1.41 99 1011.4
20260904172417 71 148 2.0 2.0 0.00 1.49 1.41 99 1011.1
20260904171917 71 150 0.0 0.0 0.00 1.49 1.41 99 1011.3
20260904171417 71 0.0 0.0 0.00 1.49 1.41 99 1011.6
20260904170917 70 331 1.0 2.0 0.01 1.49 1.41 99 1011.8
20260904170418 70 138 2.0 3.0 0.02 1.49 1.41 99 1011.3
20260904165937 70 227 1.0 1.0 0.03 1.49 1.41 100 1011.8
20260904165418 70 5 1.0 3.0 0.05 1.49 1.41 99 1010.7
20260904164918 70 235 0.0 1.0 0.05 1.49 1.41 99 1010.5
20260904164418 70 151 0.0 0.0 0.06 1.49 1.41 99 1010.5
20260904163918 70 156 2.0 2.0 0.06 1.49 1.41 98 1010.9
20260904163418 70 0.0 0.0 0.07 1.49 1.41 98 1011.1
20260904162938 70 351 2.0 2.0 0.07 1.49 1.40 97 1010.9
20260904162501 70 273 2.0 3.0 0.07 1.49 1.40 98 1010.2
20260904161918 69 266 2.0 4.0 0.07 1.49 1.40 99 1009.6
20260904161418 69 121 2.0 4.0 0.08 1.48 1.40 100 1009.3